OBJECT D, 52156

Orbit data source: Space-Track

You're viewing an Uncataloged Satellite

Recently launched and/or uncataloged satellites may have evolving metadata. Metadata may include but not limited to: Owner, Maufacturer, Bus, Motor, and Mission.

OBJECT D, 52156 is a satellite owned by ZJUNI-SAT (CN) in SSO that was launched on Wed, 30 Mar 2022 UTC via a CHANG ZHENG 11 launch vehicle from the Jiuquan Satellite Launch Center, China (JSC). Unknown objects in Earth's orbit typically refer to objects detected orbiting the Earth but have not yet been identified or cataloged. These objects could be anything from previously untracked satellites, spent rocket stages, debris from satellite collisions, or even natural meteoroids temporarily captured by Earth's gravity.

Loading next visibility...
Identifier
52156, 2022-032D
Orbit
SSO
Country
Flag of CNCN / PRC
Related business
Manufacturer
ZJUNI-SAT
Mission
Operational Defense Calibration
Bus & Motor
TP-2, Unknown motor
Mass
30 kg wet, ~30 kg dry
Launch date (UTC)
2022-03-30 (4 years ago)
Launch vehicle
CHANG ZHENG 11
Launch site
Jiuquan Satellite Launch Center, China (JSC)
Object type
Unknown
Shape & HBR
Box + 2 Pan, 0.3 m
Radar Cross Section
0.162 m², Medium (>0.1 m² and < 1m²)

Expand to show TLE details & history
Last TLE update: 22 hours ago

TLE from 22 hours ago
0 OBJECT D
1 52156U 22032D   26172.52243072  .00003893  00000-0  23515-3 0  9993
2 52156  97.5827 224.8410 0007791 132.3135 227.8756 15.11258738231501
Epoch: 2026-06-21T12:32Z
TLE epoch observation values (Epoch: 2026-06-21T12:32:18.014Z)
Latitude
-0.00003°
Longitude
127.04445°
Altitude
539.048 km
Speed
7.591 km/s
True Right ascension
14h 59m 21s
True Declination
0° 00' 00"
Sunlit
Object was in full shadow at epoch
Visualization orbit readout
Latitude
Unknown
Longitude
Unknown
Altitude
Unknown
Speed
Unknown
Apparent Right ascension
Unknown
Apparent Declination
Unknown
Sunlit
N/A
Visualization observer readout
Local Sidereal Time
21:33:04
Azimuth
Unknown
Elevation
Unknown
Doppler factor
Unknown
Orbital elements
Apogee altitude
534.727 km
Perigee altitude
523.964 km
Semi-major axis
6,907.482 km
Eccentricity
0.00078
Inclination
97.5827°
RAAN
224.841°
Arg. of periapsis
132.3135°
True anomaly
227.80943°
Mean anomaly
227.8756°
Eccentric anomaly
227.84251°
Mean motion
3.78062 °/min
Orbital period
95.22 mins
BSTAR
0.00023515
Loading maneuver chart data...
Computing Atmospheric mass density...
Loading historical data...
Loading historical data...
Loading historical data...
Loading historical data...
Loading historical data...
Loading historical data...
Loading historical data...
Other satellites on launch #32 in the year 2022 (2022-03-30 UTC)

Documentation

Showing up to 5 results
|